NILESAT 301

Last updated on Sat Aug 15 2026 00:03:02 GMT+0000 (Coordinated Universal Time)

1 52817U 22061A 26226.35272045 -.00000074 00000+0 00000+0 0 9990 2 52817 0.0510 353.8827 0002481 103.5519 345.2589 1.00272536 15329
UTC large
Height (km)
Speed (km/s)
/
Latitude / Longitude
Inclination (degrees)
Orbital Period (minutes)
Azimuth
Elevation
Range (km)
Doppler Factor

Next 0 passes for location: London (51.5072 / 0.1276)

No passes found over London.
NILESAT 301